Tracking 35275 objects as of 8-Sep-2026
HD Live streaming from Space Station
objects crossing your sky now

COSMOS 877

Track COSMOS 877 now!
10-day predictions
COSMOS 877 is classified as:


NORAD ID: 9594
Int'l Code: 1976-118G
Launch date: December 7, 1976
Source: Commonwealth of Independent States (former USSR) (CIS)
Launch site: PLESETSK MISSILE AND SPACE COMPLEX (PKMTR)
Your satellite tracking list
Your tracking list is empty




NASA's NSSDC Master Catalog

Two Line Element Set (TLE):
1 09594U 76118G   26250.78703905 -.00000028  00000-0 -76369-4 0  9991
2 09594  74.0317 159.9623 0005551  87.2537 329.5594 12.51341124272589
Source of the keplerian elements: AFSPC